Volver al catálogo

STARLINK-4111

ActivoComunicacionesVLEO
NORAD 53159·PAYLOAD·🇺🇸 United States

Lanzado Jul 17, 2022 desde Cape Canaveral Space Force Station

Loading…

Próximos Pases (próximas 24 horas)

TLE

ActualizadoSource: CelesTrak SupGP

Época: Sep 14, 2026, 21:02 UTC

1 53159C 22083AD  26257.87687500  .00028982  00000+0  82955-3 0  2578
2 53159  53.1611  30.0675 0001151  77.2541 174.8941 15.35371178    13

Sigue STARLINK-4111 en tiempo real con AllMySat

Download on the App Store